Location: Unspecified
(0.0000°N, 0.0000°E)
Time: 01:50:19
(UTC+00:00)

Transit 2A - Visible Passes

Search period start: 28 February 2021 00:00
Search period end: 10 March 2021 00:00
Orbit: 600 x 958 km, 66.7° (Epoch: 27 February)

Date Brightness Start Highest point End Pass type
(mag) Time Alt. Az. Time Alt. Az. Time Alt. Az.
28 Feb 7.8 05:12:11 10° NNE 05:16:01 28° ENE 05:20:07 10° SE visible
01 Mar 8.5 04:39:12 10° NE 04:41:57 16° ENE 04:44:47 10° ESE visible
02 Mar 6.2 05:46:18 10° NW 05:50:34 41° WSW 05:55:14 10° S visible
03 Mar 5.6 05:11:56 10° NNW 05:16:25 77° WSW 05:21:22 10° SSE visible
04 Mar 6.2 04:39:08 19° N 04:42:18 58° ENE 04:47:09 10° SSE visible
05 Mar 7.3 04:07:21 29° NE 04:08:14 32° ENE 04:12:33 10° SE visible
06 Mar 8.4 03:35:28 16° E 03:35:28 16° E 03:37:24 10° ESE visible
06 Mar 6.9 05:16:02 20° W 05:17:00 21° WSW 05:20:47 10° SSW visible
07 Mar 6.7 04:44:02 32° SW 04:44:02 32° SW 04:47:26 10° S visible
08 Mar 7.7 04:11:56 21° S 04:11:56 21° S 04:13:38 10° SSE visible
